Time,TemperatureF,DewpointF,PressureIn,WindDirection,WindDirectionDegrees,WindSpeedMPH,WindSpeedGustMPH,Humidity,HourlyPrecipIn,Conditions,Clouds,dailyrainin,SoftwareType,DateUTC
2013-10-10 00:11:00,58.0,-99.9,29.67,WNW,291,0.0,7.0,-999,-99.99,,,-99.99,,2013-10-10 07:11:00,
2013-10-10 00:22:00,58.0,-99.9,29.68,SE,136,1.0,2.0,-999,-99.99,,,-99.99,,2013-10-10 07:22:00,
2013-10-10 00:32:00,58.0,-99.9,29.68,SE,136,1.0,2.0,-999,-99.99,,,-99.99,,2013-10-10 07:32:00,
2013-10-10 00:42:00,58.0,-99.9,29.68,SE,136,1.0,2.0,-999,-99.99,,,-99.99,,2013-10-10 07:42:00,
2013-10-10 00:52:00,57.0,-99.9,29.67,ENE,71,1.0,2.0,-999,-99.99,,,-99.99,,2013-10-10 07:52:00,
2013-10-10 01:11:00,57.0,-99.9,29.69,ENE,68,0.0,2.0,-999,-99.99,,,-99.99,,2013-10-10 08:11:00,
2013-10-10 01:20:00,56.0,-99.9,29.70,NNE,19,1.0,2.0,-999,-99.99,,,-99.99,,2013-10-10 08:20:00,
2013-10-10 01:22:00,57.0,-99.9,29.69,ENE,68,0.0,2.0,-999,-99.99,,,-99.99,,2013-10-10 08:22:00,
2013-10-10 01:43:00,56.0,-99.9,29.70,NNE,19,1.0,2.0,-999,-99.99,,,-99.99,,2013-10-10 08:43:00,
2013-10-10 01:52:00,56.0,-99.9,29.70,NNE,19,1.0,2.0,-999,-99.99,,,-99.99,,2013-10-10 08:52:00,
2013-10-10 02:02:00,56.0,-99.9,29.70,NNE,19,1.0,2.0,-999,-99.99,,,-99.99,,2013-10-10 09:02:00,
2013-10-10 02:12:00,56.0,-99.9,29.70,NNE,19,1.0,2.0,-999,-99.99,,,-99.99,,2013-10-10 09:12:00,
2013-10-10 03:23:00,55.0,-99.9,29.72,ESE,103,2.0,3.0,-999,-99.99,,,-99.99,,2013-10-10 10:23:00,
2013-10-10 03:40:00,55.0,-99.9,29.70,ENE,65,2.0,3.0,-999,-99.99,,,-99.99,,2013-10-10 10:40:00,
2013-10-10 03:43:00,55.0,-99.9,29.71,ESE,103,1.0,3.0,-999,-99.99,,,-99.99,,2013-10-10 10:43:00,
2013-10-10 03:53:00,55.0,-99.9,29.69,SE,134,1.0,4.0,-999,-99.99,,,-99.99,,2013-10-10 10:53:00,
2013-10-10 04:12:00,55.0,-99.9,29.70,ENE,65,2.0,3.0,-999,-99.99,,,-99.99,,2013-10-10 11:12:00,
2013-10-10 04:22:00,55.0,-99.9,29.70,ENE,65,2.0,3.0,-999,-99.99,,,-99.99,,2013-10-10 11:22:00,
2013-10-10 04:33:00,55.0,-99.9,29.70,ENE,65,2.0,3.0,-999,-99.99,,,-99.99,,2013-10-10 11:33:00,
2013-10-10 05:12:00,54.0,-99.9,29.73,NNE,15,1.0,5.0,-999,-99.99,,,-99.99,,2013-10-10 12:12:00,
2013-10-10 05:20:00,53.0,-99.9,29.74,NNE,14,2.0,3.0,-999,-99.99,,,-99.99,,2013-10-10 12:20:00,
2013-10-10 05:21:00,54.0,-99.9,29.73,NNE,15,1.0,5.0,-999,-99.99,,,-99.99,,2013-10-10 12:21:00,
2013-10-10 05:42:00,53.0,-99.9,29.74,NNE,14,2.0,3.0,-999,-99.99,,,-99.99,,2013-10-10 12:42:00,
2013-10-10 05:52:00,53.0,-99.9,29.74,NNE,14,2.0,3.0,-999,-99.99,,,-99.99,,2013-10-10 12:52:00,
2013-10-10 06:12:00,53.0,-99.9,29.74,NNE,14,2.0,3.0,-999,-99.99,,,-99.99,,2013-10-10 13:12:00,
2013-10-10 06:42:00,53.0,-99.9,29.78,NNE,21,0.0,3.0,-999,-99.99,,,-99.99,,2013-10-10 13:42:00,
2013-10-10 06:50:00,52.0,-99.9,29.79,NE,52,3.0,5.0,-999,-99.99,,,-99.99,,2013-10-10 13:50:00,
2013-10-10 06:52:00,52.0,-99.9,29.79,NE,50,1.0,1.0,-999,-99.99,,,-99.99,,2013-10-10 13:52:00,
2013-10-10 07:11:00,52.0,-99.9,29.79,NE,52,3.0,5.0,-999,-99.99,,,-99.99,,2013-10-10 14:11:00,
2013-10-10 07:22:00,52.0,-99.9,29.79,NE,52,3.0,5.0,-999,-99.99,,,-99.99,,2013-10-10 14:22:00,
2013-10-10 07:32:00,52.0,-99.9,29.79,NE,52,3.0,5.0,-999,-99.99,,,-99.99,,2013-10-10 14:32:00,
2013-10-10 07:42:00,52.0,-99.9,29.79,NE,52,3.0,5.0,-999,-99.99,,,-99.99,,2013-10-10 14:42:00,
2013-10-10 08:11:00,53.0,-99.9,29.79,NE,42,2.0,5.0,-999,-99.99,,,-99.99,,2013-10-10 15:11:00,
2013-10-10 08:22:00,53.0,-99.9,29.79,NE,41,3.0,5.0,-999,-99.99,,,-99.99,,2013-10-10 15:22:00,
2013-10-10 08:43:00,54.0,-99.9,29.81,NE,38,2.0,5.0,-999,-99.99,,,-99.99,,2013-10-10 15:43:00,
2013-10-10 08:54:00,54.0,-99.9,29.81,NE,38,2.0,5.0,-999,-99.99,,,-99.99,,2013-10-10 15:54:00,
2013-10-10 09:04:00,54.0,-99.9,29.81,NE,38,2.0,5.0,-999,-99.99,,,-99.99,,2013-10-10 16:04:00,
2013-10-10 09:23:00,54.0,-99.9,29.81,NE,40,3.0,5.0,-999,-99.99,,,-99.99,,2013-10-10 16:23:00,
2013-10-10 09:42:00,56.0,-99.9,29.84,ENE,61,2.0,6.0,-999,-99.99,,,-99.99,,2013-10-10 16:42:00,
2013-10-10 09:53:00,56.0,-99.9,29.84,ENE,61,2.0,6.0,-999,-99.99,,,-99.99,,2013-10-10 16:53:00,
2013-10-10 10:12:00,58.0,-99.9,29.85,East,81,3.0,5.0,-999,-99.99,,,-99.99,,2013-10-10 17:12:00,
2013-10-10 10:23:00,58.0,-99.9,29.85,East,81,3.0,5.0,-999,-99.99,,,-99.99,,2013-10-10 17:23:00,
2013-10-10 10:42:00,60.0,-99.9,29.85,ESE,113,3.0,6.0,-999,-99.99,,,-99.99,,2013-10-10 17:42:00,
2013-10-10 10:53:00,60.0,-99.9,29.85,ESE,113,3.0,6.0,-999,-99.99,,,-99.99,,2013-10-10 17:53:00,
2013-10-10 11:12:00,61.0,-99.9,29.85,South,170,3.0,7.0,-999,-99.99,,,-99.99,,2013-10-10 18:12:00,
2013-10-10 11:22:00,61.0,-99.9,29.85,South,170,3.0,7.0,-999,-99.99,,,-99.99,,2013-10-10 18:22:00,
2013-10-10 11:32:00,61.0,-99.9,29.85,South,170,3.0,7.0,-999,-99.99,,,-99.99,,2013-10-10 18:32:00,
2013-10-10 11:42:00,61.0,-99.9,29.85,South,170,3.0,7.0,-999,-99.99,,,-99.99,,2013-10-10 18:42:00,
2013-10-10 11:52:00,62.0,-99.9,29.85,ESE,103,4.0,7.0,-999,-99.99,,,-99.99,,2013-10-10 18:52:00,
2013-10-10 12:11:00,64.0,-99.9,29.85,WNW,294,3.0,6.0,-999,-99.99,,,-99.99,,2013-10-10 19:11:00,
2013-10-10 12:22:00,64.0,-99.9,29.85,WNW,294,3.0,6.0,-999,-99.99,,,-99.99,,2013-10-10 19:22:00,
2013-10-10 12:42:00,65.0,-99.9,29.85,SE,127,5.0,9.0,-999,-99.99,,,-99.99,,2013-10-10 19:42:00,
2013-10-10 12:53:00,65.0,-99.9,29.85,SE,127,5.0,9.0,-999,-99.99,,,-99.99,,2013-10-10 19:53:00,
2013-10-10 13:10:00,66.0,-99.9,29.84,SSE,151,4.0,9.0,-999,-99.99,,,-99.99,,2013-10-10 20:10:00,
2013-10-10 13:12:00,66.0,-99.9,29.86,WSW,251,4.0,9.0,-999,-99.99,,,-99.99,,2013-10-10 20:12:00,
2013-10-10 13:22:00,66.0,-99.9,29.86,WSW,251,4.0,9.0,-999,-99.99,,,-99.99,,2013-10-10 20:22:00,
2013-10-10 13:42:00,66.0,-99.9,29.84,SSE,151,4.0,9.0,-999,-99.99,,,-99.99,,2013-10-10 20:42:00,
2013-10-10 13:52:00,66.0,-99.9,29.84,SSE,151,4.0,9.0,-999,-99.99,,,-99.99,,2013-10-10 20:52:00,
2013-10-10 14:03:00,66.0,-99.9,29.84,SSE,151,4.0,9.0,-999,-99.99,,,-99.99,,2013-10-10 21:03:00,
2013-10-10 14:44:00,68.0,-99.9,29.84,SSW,210,7.0,14.0,-999,-99.99,,,-99.99,,2013-10-10 21:44:00,
2013-10-10 14:54:00,68.0,-99.9,29.84,SSW,210,7.0,14.0,-999,-99.99,,,-99.99,,2013-10-10 21:54:00,
2013-10-10 15:24:00,69.0,-99.9,29.85,SW,221,9.0,15.0,-999,-99.99,,,-99.99,,2013-10-10 22:24:00,
2013-10-10 15:43:00,69.0,-99.9,29.87,SW,232,9.0,14.0,-999,-99.99,,,-99.99,,2013-10-10 22:43:00,
2013-10-10 15:53:00,68.0,-99.9,29.86,SW,223,9.0,15.0,-999,-99.99,,,-99.99,,2013-10-10 22:53:00,
2013-10-10 16:03:00,68.0,-99.9,29.86,SW,223,9.0,15.0,-999,-99.99,,,-99.99,,2013-10-10 23:03:00,
2013-10-10 16:23:00,68.0,-99.9,29.86,SW,231,7.0,15.0,-999,-99.99,,,-99.99,,2013-10-10 23:23:00,
2013-10-10 16:40:00,68.0,-99.9,29.86,SW,234,6.0,11.0,-999,-99.99,,,-99.99,,2013-10-10 23:40:00,
2013-10-10 16:43:00,68.0,-99.9,29.87,SW,233,7.0,12.0,-999,-99.99,,,-99.99,,2013-10-10 23:43:00,
2013-10-10 16:53:00,68.0,-99.9,29.87,SW,233,7.0,12.0,-999,-99.99,,,-99.99,,2013-10-10 23:53:00,
2013-10-10 17:11:00,68.0,-99.9,29.86,SW,234,6.0,11.0,-999,-99.99,,,-99.99,,2013-10-11 00:11:00,
2013-10-10 17:22:00,68.0,-99.9,29.86,SW,234,6.0,11.0,-999,-99.99,,,-99.99,,2013-10-11 00:22:00,
2013-10-10 17:32:00,68.0,-99.9,29.86,SW,234,6.0,11.0,-999,-99.99,,,-99.99,,2013-10-11 00:32:00,
2013-10-10 18:10:00,66.0,-99.9,29.84,SW,216,5.0,7.0,-999,-99.99,,,-99.99,,2013-10-11 01:10:00,
2013-10-10 18:12:00,67.0,-99.9,29.88,SW,233,4.0,10.0,-999,-99.99,,,-99.99,,2013-10-11 01:12:00,
2013-10-10 18:22:00,67.0,-99.9,29.88,SW,233,4.0,10.0,-999,-99.99,,,-99.99,,2013-10-11 01:22:00,
2013-10-10 18:42:00,66.0,-99.9,29.84,SW,216,5.0,7.0,-999,-99.99,,,-99.99,,2013-10-11 01:42:00,
2013-10-10 18:52:00,66.0,-99.9,29.84,SW,216,5.0,7.0,-999,-99.99,,,-99.99,,2013-10-11 01:52:00,
2013-10-10 19:02:00,66.0,-99.9,29.84,SW,216,5.0,7.0,-999,-99.99,,,-99.99,,2013-10-11 02:02:00,
2013-10-10 20:23:00,66.0,-99.9,29.88,SW,216,3.0,7.0,-999,-99.99,,,-99.99,,2013-10-11 03:23:00,
2013-10-10 20:45:00,64.0,-99.9,29.88,WNW,285,2.0,5.0,-999,-99.99,,,-99.99,,2013-10-11 03:45:00,
2013-10-10 20:54:00,64.0,-99.9,29.88,WNW,285,2.0,5.0,-999,-99.99,,,-99.99,,2013-10-11 03:54:00,
2013-10-10 21:04:00,64.0,-99.9,29.88,WNW,285,2.0,5.0,-999,-99.99,,,-99.99,,2013-10-11 04:04:00,
2013-10-10 21:24:00,63.0,-99.9,29.88,NW,304,0.0,3.0,-999,-99.99,,,-99.99,,2013-10-11 04:24:00,
2013-10-10 21:44:00,63.0,-99.9,29.89,WNW,290,1.0,2.0,-999,-99.99,,,-99.99,,2013-10-11 04:44:00,
2013-10-10 21:53:00,63.0,-99.9,29.89,WNW,290,1.0,2.0,-999,-99.99,,,-99.99,,2013-10-11 04:53:00,
2013-10-10 22:23:00,62.0,-99.9,29.88,WSW,255,1.0,2.0,-999,-99.99,,,-99.99,,2013-10-11 05:23:00,
2013-10-10 22:43:00,61.0,-99.9,29.88,SSW,203,0.0,0.0,-999,-99.99,,,-99.99,,2013-10-11 05:43:00,
2013-10-10 22:52:00,61.0,-99.9,29.87,WNW,293,0.0,1.0,-999,-99.99,,,-99.99,,2013-10-11 05:52:00,
2013-10-10 23:12:00,61.0,-99.9,29.88,NNW,328,1.0,2.0,-999,-99.99,,,-99.99,,2013-10-11 06:12:00,
2013-10-10 23:22:00,61.0,-99.9,29.88,NNW,328,1.0,2.0,-999,-99.99,,,-99.99,,2013-10-11 06:22:00,
2013-10-10 23:43:00,60.0,-99.9,29.88,SE,135,0.0,2.0,-999,-99.99,,,-99.99,,2013-10-11 06:43:00,
2013-10-10 23:52:00,60.0,-99.9,29.88,SE,135,0.0,0.0,-999,-99.99,,,-99.99,,2013-10-11 06:52:00,